This is the latest recevied weather packets stored in our database for station/object KY4JDC. If no packets are shown the sender has not sent any weather packets the latest 10 day(s).
| Time | Temp. | Humidity | Pressure | Rain* | Wind** | Luminosity | Snow |
|---|---|---|---|---|---|---|---|
| 1787437421 | 30° C | 55% | 1017.1 hPa | 0 mm | - | 121 W/m² | - |
| 1787437116 | 30.56° C | 54% | 1016.8 hPa | 0 mm | - | 125 W/m² | - |
| 1787436812 | 30.56° C | 55% | 1017 hPa | 0 mm | - | 100 W/m² | - |
| 1787436509 | 30.56° C | 56% | 1016.8 hPa | 0 mm | - | 108 W/m² | - |
| 1787436207 | 30° C | 56% | 1016.7 hPa | 0 mm | - | 105 W/m² | - |
| 1787435907 | 30.56° C | 56% | 1016.8 hPa | 0 mm | - | 112 W/m² | - |
| 1787435604 | 30.56° C | 57% | 1017 hPa | 0 mm | - | 112 W/m² | - |
| 1787435300 | 30.56° C | 61% | 1016.7 hPa | 0 mm | - | 112 W/m² | - |
| 1787434996 | 30.56° C | 61% | 1016.5 hPa | 0 mm | - | 138 W/m² | - |
| 1787434692 | 30.56° C | 63% | 1016.6 hPa | 0 mm | - | 363 W/m² | - |
| 1787434388 | 30.56° C | 64% | 1016.4 hPa | 0 mm | - | 295 W/m² | - |
| 1787434084 | 30.56° C | 63% | 1016.3 hPa | 0 mm | - | 202 W/m² | - |
| 1787433784 | 30° C | 65% | 1016.4 hPa | 0 mm | - | 138 W/m² | - |
| 1787433480 | 30.56° C | 63% | 1016.4 hPa | 0 mm | - | 134 W/m² | - |
| 1787433175 | 30.56° C | 65% | 1016.6 hPa | 0 mm | - | 139 W/m² | - |
| 1787432872 | 31.11° C | 64% | 1016.7 hPa | 0 mm | - | 155 W/m² | - |
| 1787432567 | 31.11° C | 64% | 1016.7 hPa | 0 mm | - | 207 W/m² | - |
| 1787432266 | 31.11° C | 63% | 1016.5 hPa | 0 mm | - | 151 W/m² | - |
| 1787431961 | 31.67° C | 64% | 1016.6 hPa | 0 mm | - | 167 W/m² | - |
| 1787431660 | 31.67° C | 63% | 1016.9 hPa | 0 mm | - | 149 W/m² | - |
| 1787431356 | 31.67° C | 64% | 1016.7 hPa | 0 mm | - | 192 W/m² | - |
| 1787431053 | 31.11° C | 63% | 1016.7 hPa | 0 mm | - | 261 W/m² | - |
| 1787430749 | 30.56° C | 65% | 1017 hPa | 0 mm | - | 167 W/m² | - |
| 1787430444 | 30.56° C | 63% | 1017 hPa | 0 mm | - | 211 W/m² | - |
| 1787430141 | 30.56° C | 65% | 1017.3 hPa | 0 mm | - | 188 W/m² | - |
* Rain latest hour (hover to see other rain measurements)
** Current wind speed in m/s (hover to see current wind gust speed)